N0JY-4 Weather Reports


Display with metric or nautical units.
time (UTC)temp
F
wind
direction
speed
MPH
gust
MPH
rain 1hr
in
rain 24hr
in
rain mn
in
humidity
%
barometer
mb
20191212031513 42 127 4.0 5.0 0.00 0.00 0.00 1029.6
20191212030741 42 108 3.0 4.0 0.00 0.00 0.00 1029.6
20191212030011 42 103 4.0 4.0 0.00 0.00 0.00 1029.6
20191212025243 43 127 4.0 4.0 0.00 0.00 0.00 1029.8
20191212024515 43 135 4.0 4.0 0.00 0.00 0.00 1029.7
20191212023747 43 148 5.0 5.0 0.00 0.00 0.00 1029.8
20191212023016 44 172 6.0 4.0 0.00 0.00 0.00 1029.7
20191212021523 44 120 5.0 4.0 0.00 0.00 0.00 1029.7
20191212020756 44 149 5.0 6.0 0.00 0.00 0.00 1029.8
20191212014521 45 141 6.0 6.0 0.00 0.00 0.00 1029.7
20191212013749 45 155 6.0 7.0 0.00 0.00 0.00 1029.6
20191212013018 45 127 4.0 4.0 0.00 0.00 0.00 1029.9
20191212011520 45 110 5.0 7.0 0.00 0.00 0.00 1029.7
20191212010755 45 160 4.0 4.0 0.00 0.00 0.00 1029.8
20191212010021 45 124 5.0 4.0 0.00 0.00 0.00 1029.8
20191212005253 46 143 3.0 3.0 0.00 0.00 0.00 1029.9
20191212004525 46 132 3.0 3.0 0.00 0.00 0.00 1030.0
20191212003756 46 145 3.0 4.0 0.00 0.00 0.00 1029.8
20191212003022 47 132 3.0 3.0 0.00 0.00 0.00 1029.8
20191212002255 47 111 3.0 4.0 0.00 0.00 0.00 1029.8
20191212001526 48 143 3.0 4.0 0.00 0.00 0.00 1029.8
20191212000800 48 138 4.0 4.0 0.00 0.00 0.00 1029.8
20191212000027 48 127 4.0 4.0 0.00 0.00 0.00 1029.8
20191211235300 48 159 5.0 4.0 0.00 0.00 0.00 1029.8
20191211234534 49 156 5.0 5.0 0.00 0.00 0.00 1029.8
20191211233807 49 153 4.0 4.0 0.00 0.00 0.00 1029.8
20191211233034 49 163 4.0 4.0 0.00 0.00 0.00 1029.9
20191211232307 50 160 4.0 4.0 0.00 0.00 0.00 1030.0
20191211231542 50 136 5.0 5.0 0.00 0.00 0.00 1030.1
20191211230815 51 155 5.0 4.0 0.00 0.00 0.00 1030.0
20191211230044 51 143 6.0 6.0 0.00 0.00 0.00 1030.0
20191211225318 52 160 6.0 4.0 0.00 0.00 0.00 1030.0
20191211224551 52 129 5.0 5.0 0.00 0.00 0.00 1030.1
20191211222325 52 172 4.0 4.0 0.00 0.00 0.00 1030.3
20191211221557 52 172 8.0 7.0 0.00 0.00 0.00 1030.4
20191211220832 52 127 5.0 6.0 0.00 0.00 0.00 1030.3
20191211220059 52 127 8.0 7.0 0.00 0.00 0.00 1030.5
20191211215332 52 174 6.0 4.0 0.00 0.00 0.00 1030.5
20191211214604 52 163 7.0 6.0 0.00 0.00 0.00 1030.5
20191211213107 51 142 9.0 9.0 0.00 0.00 0.00 1030.8
20191211212340 52 141 5.0 8.0 0.00 0.00 0.00 1030.9
20191211211612 51 139 7.0 6.0 0.00 0.00 0.00 1031.0
20191211210846 51 163 6.0 6.0 0.00 0.00 0.00 1031.0
20191211210115 51 173 7.0 7.0 0.00 0.00 0.00 1031.1
20191211204621 50 188 7.0 8.0 0.00 0.00 0.00 1031.4
20191211203855 50 204 7.0 5.0 0.00 0.00 0.00 1031.4
20191211203124 50 197 7.0 4.0 0.00 0.00 0.00 1031.6
20191211202357 49 160 5.0 6.0 0.00 0.00 0.00 1031.6
20191211201630 49 187 8.0 5.0 0.00 0.00 0.00 1031.7
20191211200904 49 152 8.0 9.0 0.00 0.00 0.00 1031.8
20191211200132 48 131 8.0 10.0 0.00 0.00 0.00 1031.8
20191211194638 47 134 7.0 5.0 0.00 0.00 0.00 1032.5
20191211193911 47 104 6.0 6.0 0.00 0.00 0.00 1032.5
20191211193140 46 158 5.0 4.0 0.00 0.00 0.00 1032.8
20191211192413 45 174 5.0 7.0 0.00 0.00 0.00 1032.9
20191211185413 42 210 8.0 7.0 0.00 0.00 0.00 1033.4
20191211184646 42 211 5.0 4.0 0.00 0.00 0.00 1033.5
20191211183919 42 212 4.0 8.0 0.00 0.00 0.00 1033.6
20191211182420 40 152 5.0 3.0 0.00 0.00 0.00 1034.0
20191211181650 39 194 5.0 6.0 0.00 0.00 0.00 1034.2
20191211180922 39 197 5.0 6.0 0.00 0.00 0.00 1034.3
20191211175423 39 187 8.0 8.0 0.00 0.00 0.00 1034.8
20191211174655 38 162 4.0 5.0 0.00 0.00 0.00 1035.1
20191211173155 38 165 6.0 6.0 0.00 0.00 0.00 1035.3
20191211172428 38 198 4.0 6.0 0.00 0.00 0.00 1035.5
20191211171701 38 188 5.0 6.0 0.00 0.00 0.00 1035.5
20191211170934 38 156 4.0 5.0 0.00 0.00 0.00 1035.6
20191211170159 37 153 8.0 6.0 0.00 0.00 0.00 1035.4
20191211165431 37 158 5.0 7.0 0.00 0.00 0.00 1035.5
20191211163932 37 162 7.0 5.0 0.00 0.00 0.00 1035.6
20191211163158 37 162 4.0 6.0 0.00 0.00 0.00 1035.6
20191211162427 37 134 5.0 5.0 0.00 0.00 0.00 1035.6
20191211161702 36 150 5.0 5.0 0.00 0.00 0.00 1035.6
20191211160934 36 143 5.0 4.0 0.00 0.00 0.00 1035.6
20191211155127 35 170 6.0 4.0 0.00 0.00 0.00 1035.2
20191211155109 35 163 6.0 6.0 0.00 0.00 0.00 1035.2
20191211153944 35 186 5.0 6.0 0.00 0.00 0.00 1035.1
20191211153209 35 170 6.0 4.0 0.00 0.00 0.00 1035.2
20191211152442 35 163 6.0 6.0 0.00 0.00 0.00 1035.2
20191211151715 35 135 4.0 3.0 0.00 0.00 0.00 1035.2
20191211150948 35 162 2.0 1.0 0.00 0.00 0.00 1035.1
20191211150218 34 180 5.0 6.0 0.00 0.00 0.00 1035.1
20191211145450 34 186 6.0 4.0 0.00 0.00 0.00 1034.9
20191211143955 34 158 5.0 5.0 0.00 0.00 0.00 1035.0
20191211143222 34 166 3.0 5.0 0.00 0.00 0.00 1035.0
20191211142454 34 114 2.0 2.0 0.00 0.00 0.00 1035.0
20191211141729 34 166 4.0 6.0 0.00 0.00 0.00 1034.9
20191211140958 33 121 4.0 2.0 0.00 0.00 0.00 1034.8
20191211140219 33 103 5.0 6.0 0.00 0.00 0.00 1034.7
20191211135446 33 111 4.0 3.0 0.00 0.00 0.00 1034.7
20191211134718 33 153 5.0 3.0 0.00 0.00 0.00 1034.4
20191211133951 34 158 5.0 4.0 0.00 0.00 0.00 1034.4
20191211133219 33 150 6.0 7.0 0.00 0.00 0.00 1034.1
20191211132453 34 146 5.0 5.0 0.00 0.00 0.00 1033.9
20191211131725 33 131 5.0 3.0 0.00 0.00 0.00 1033.9
20191211130959 33 139 5.0 4.0 0.00 0.00 0.00 1033.8
20191211130227 33 125 4.0 3.0 0.00 0.00 0.00 1033.9
20191211125500 33 121 5.0 6.0 0.00 0.00 0.00 1033.7
20191211124734 33 118 4.0 6.0 0.00 0.00 0.00 1033.7
20191211123234 33 108 5.0 4.0 0.00 0.00 0.00 1033.5
20191211122509 33 160 6.0 5.0 0.00 0.00 0.00 1033.4
20191211121741 33 156 5.0 6.0 0.00 0.00 0.00 1033.4
20191211120245 33 122 4.0 7.0 0.00 0.00 0.00 1033.5
20191211115517 33 139 5.0 3.0 0.00 0.00 0.00 1033.3
20191211114024 33 172 5.0 4.0 0.00 0.00 0.00 1033.0
20191211113249 33 125 4.0 6.0 0.00 0.00 0.00 1033.0
20191211112523 33 153 5.0 4.0 0.00 0.00 0.00 1032.9
20191211111755 33 143 5.0 6.0 0.00 0.00 0.00 1032.9
20191211111028 33 149 4.0 4.0 0.00 0.00 0.00 1032.8
20191211110252 33 145 3.0 3.0 0.00 0.00 0.00 1032.8
20191211105526 33 128 6.0 4.0 0.00 0.00 0.00 1032.8
20191211104030 32 68 0.0 0.0 0.00 0.00 0.00 1032.9
20191211103255 31 68 0.0 0.0 0.00 0.00 0.00 1033.1
20191211102529 31 68 0.0 0.0 0.00 0.00 0.00 1032.9
20191211101034 29 87 2.0 2.0 0.00 0.00 0.00 1032.6
20191211100300 29 24 0.0 0.0 0.00 0.00 0.00 1032.6
20191211095534 29 24 0.0 0.0 0.00 0.00 0.00 1032.5
20191211094808 29 24 0.0 0.0 0.00 0.00 0.00 1032.4
20191211094040 29 24 0.0 0.0 0.00 0.00 0.00 1032.4
20191211093305 29 24 0.0 0.0 0.00 0.00 0.00 1032.4
20191211092537 29 24 0.0 0.0 0.00 0.00 0.00 1032.3
20191211091810 30 24 0.0 0.0 0.00 0.00 0.00 1032.4
20191211091044 30 24 0.0 0.0 0.00 0.00 0.00 1032.3
20191211090314 30 24 0.0 0.0 0.00 0.00 0.00 1032.2
20191211085546 29 24 0.0 0.0 0.00 0.00 0.00 1032.2
20191211084820 29 24 0.0 0.0 0.00 0.00 0.00 1032.2
20191211084052 29 24 0.0 0.0 0.00 0.00 0.00 1032.2
20191211083321 29 24 0.0 0.0 0.00 0.00 0.00 1032.2
20191211082556 29 24 0.0 0.0 0.00 0.00 0.00 1032.1
20191211081825 29 24 0.0 0.0 0.00 0.00 0.00 1032.2
20191211081057 30 24 0.0 0.0 0.00 0.00 0.00 1032.1
20191211075559 29 233 0.0 0.0 0.00 0.00 0.00 1032.3
20191211074831 30 233 0.0 0.0 0.00 0.00 0.00 1032.2
20191211074105 30 233 0.0 0.0 0.00 0.00 0.00 1032.2
20191211073332 30 233 0.0 0.0 0.00 0.00 0.00 1032.3
20191211072604 30 233 0.0 0.0 0.00 0.00 0.00 1032.2
20191211071838 30 233 0.0 0.0 0.00 0.00 0.00 1032.1
20191211071110 31 233 0.0 0.0 0.00 0.00 0.00 1032.1
20191211070339 32 233 0.0 0.0 0.00 0.00 0.00 1032.0
20191211065612 33 233 0.0 0.0 0.00 0.00 0.00 1032.2
20191211064116 33 274 0.0 0.0 0.00 0.00 0.00 1032.0
20191211063347 33 353 0.0 0.0 0.00 0.00 0.00 1032.0
20191211062619 33 353 0.0 0.0 0.00 0.00 0.00 1032.0
20191211061852 34 353 0.0 0.0 0.00 0.00 0.00 1032.1
20191211061123 34 353 0.0 0.0 0.00 0.00 0.00 1032.1
20191211060352 34 20 0.0 0.0 0.00 0.00 0.00 1032.1
20191211051900 34 20 0.0 0.0 0.00 0.00 0.00 1031.9
20191211051133 34 20 0.0 0.0 0.00 0.00 0.00 1031.9
20191211045631 33 20 0.0 0.0 0.00 0.00 0.00 1031.8
20191211044905 33 20 0.0 0.0 0.00 0.00 0.00 1031.8
20191211044135 33 20 0.0 0.0 0.00 0.00 0.00 1031.8
20191211043404 33 20 0.0 0.0 0.00 0.00 0.00 1031.8
20191211042638 33 20 0.0 0.0 0.00 0.00 0.00 1031.8
20191211041911 33 17 3.0 2.0 0.00 0.00 0.00 1031.7
20191211041142 33 11 3.0 3.0 0.00 0.00 0.00 1031.6
20191211040410 33 17 3.0 3.0 0.00 0.00 0.00 1031.6
20191211035644 33 15 2.0 2.0 0.00 0.00 0.00 1031.6
20191211034916 33 8 3.0 3.0 0.00 0.00 0.00 1031.5
20191211034150 32 21 2.0 2.0 0.00 0.00 0.00 1031.5
20191211033417 32 10 3.0 3.0 0.00 0.00 0.00 1031.4
20191211032652 32 14 0.0 0.0 0.00 0.00 0.00 1031.4
20191211031913 33 14 0.0 0.0 0.00 0.00 0.00 1031.4